This demonstration page uses our WeatherBlox Daily Observations layout. Learn more.

Left ArrowRight Arrow

41.12389, -100.76542

Hourly Observations for March 6, 2021

Temp ( °F °C ) Dew Point ( °F °C ) Humidity (%) Winds ( mph kmh ) Pressure ( in mb ) Visibility ( mi km ) Precip ( " mm )
12:53 am 00:53 Clear 43 6.1 26 -3.3 51 51 S 3 6 30.18 1022 10 16 0.00 0.00
1:53 am 01:53 Clear 35 1.7 25 -3.9 67 67 S 3 6 30.18 1022 10 16 0.00 0.00
2:53 am 02:53 Clear 30 -1.1 24 -4.4 79 79 Calm 30.18 1022 10 16 0.00 0.00
3:53 am 03:53 Clear 29 -1.7 24 -4.4 82 82 Calm 30.18 1022 10 16 0.00 0.00
4:53 am 04:53 Clear 33 0.6 25 -3.9 72 72 Calm 30.17 1022 10 16 0.00 0.00
5:53 am 05:53 Clear 29 -1.7 24 -4.4 82 82 Calm 30.18 1022 10 16 0.00 0.00
6:53 am 06:53 Clear 29 -1.7 22 -5.6 75 75 Calm 30.19 1022 10 16 0.00 0.00
7:53 am 07:53 Sunny 30 -1.1 24 -4.4 79 79 Calm 30.19 1022 10 16 0.00 0.00
8:53 am 08:53 Sunny 40 4.4 29 -1.7 65 65 Calm 30.19 1022 10 16 0.00 0.00
9:53 am 09:53 Sunny 49 9.4 31 -0.6 50 50 Calm 30.17 1022 10 16 0.00 0.00
10:53 am 10:53 Sunny 63 17.2 30 -1.1 29 29 SW 12 19 30.12 1020 10 16 0.00 0.00
11:53 am 11:53 Sunny 68 20 25 -3.9 20 20 SSW 17 28 30.08 1019 10 16 0.00 0.00
12:53 pm 12:53 Sunny 70 21.1 22 -5.6 16 16 SSW 21 33 30.04 1017 10 16 0.00 0.00
1:53 pm 13:53 Sunny 72 22.2 20 -6.7 14 14 S 18 30 30.00 1016 10 16 0.00 0.00
2:53 pm 14:53 Sunny 73 22.8 19 -7.2 13 13 S 21 33 29.98 1015 10 16 0.00 0.00
3:53 pm 15:53 Sunny 72 22.2 19 -7.2 13 13 S 23 37 29.98 1015 10 16 0.00 0.00
4:53 pm 16:53 Sunny 71 21.7 22 -5.6 16 16 S 17 28 29.96 1014 10 16 0.00 0.00
5:53 pm 17:53 Sunny 67 19.4 23 -5 19 19 S 17 28 29.96 1015 10 16 0.00 0.00
6:53 pm 18:53 Clear 60 15.6 24 -4.4 25 25 S 10 17 29.97 1015 10 16 0.00 0.00
7:53 pm 19:53 Clear 59 15 24 -4.4 26 26 SSE 13 20 29.96 1015 10 16 0.00 0.00
8:53 pm 20:53 Clear 57 13.9 25 -3.9 29 29 S 21 33 29.95 1014 10 16 0.00 0.00
9:53 pm 21:53 Clear 55 12.8 28 -2.2 35 35 S 20 31 29.94 1014 10 16 0.00 0.00
10:53 pm 22:53 Clear 53 11.7 28 -2.2 38 38 S 18 30 29.92 1013 10 16 0.00 0.00
11:53 pm 23:53 Clear 52 11.1 30 -1.1 43 43 SSE 17 28 29.90 1013 10 16 0.00 0.00

Powered by AerisWeather